Hourly Weather Otomin

Today, 8 May, Saturday

Time Temperature Precipitation Wind Pressure Humidity
00:00 +1°C° 0 mm 3 mps 747 mmHg 93%
01:00 +1°C° 0 mm 3 mps 747 mmHg 96%
02:00 +1°C° 0 mm 3 mps 747 mmHg 94%
03:00 +1°C° 0 mm 3 mps 748 mmHg 92%
04:00 +1°C° 0 mm 3 mps 748 mmHg 90%
05:00 +2°C° 0 mm 3 mps 748 mmHg 86%
06:00 +4°C° 0 mm 4 mps 749 mmHg 82%
07:00 +5°C° 0 mm 4 mps 749 mmHg 78%
08:00 +5°C° 0.2 mm 4 mps 749 mmHg 75%
09:00 +6°C° 0.2 mm 5 mps 749 mmHg 72%
10:00 +5°C° 0.2 mm 6 mps 750 mmHg 69%
11:00 +7°C° 0.2 mm 6 mps 750 mmHg 67%
12:00 +7°C° 0.2 mm 6 mps 750 mmHg 64%
13:00 +7°C° 0.2 mm 6 mps 750 mmHg 62%
14:00 +8°C° 0.2 mm 6 mps 750 mmHg 60%
15:00 +8°C° 0.2 mm 6 mps 751 mmHg 57%
16:00 +8°C° 0.2 mm 5 mps 751 mmHg 55%
17:00 +7°C° 0 mm 4 mps 751 mmHg 58%
18:00 +7°C° 0 mm 3 mps 751 mmHg 62%
19:00 +6°C° 0 mm 2 mps 751 mmHg 65%
20:00 +5°C° 0 mm 2 mps 752 mmHg 66%
21:00 +4°C° 0 mm 2 mps 752 mmHg 68%
22:00 +3°C° 0 mm 2 mps 752 mmHg 69%
23:00 +3°C° 0 mm 2 mps 752 mmHg 70%

Tomorrow, 9 May, Sunday

Time Temperature Precipitation Wind Pressure Humidity
00:00 +2°C° 0 mm 3 mps 752 mmHg 70%
01:00 +2°C° 0 mm 3 mps 752 mmHg 71%
02:00 +2°C° 0 mm 3 mps 752 mmHg 75%
03:00 +1°C° 0 mm 4 mps 751 mmHg 79%
04:00 +1°C° 0 mm 4 mps 751 mmHg 84%
05:00 +3°C° 0 mm 4 mps 751 mmHg 80%
06:00 +5°C° 0 mm 5 mps 751 mmHg 76%
07:00 +5°C° 0 mm 6 mps 751 mmHg 72%
08:00 +5°C° 0.1 mm 6 mps 750 mmHg 75%
09:00 +5°C° 0.1 mm 6 mps 750 mmHg 78%
10:00 +5°C° 0.1 mm 7 mps 750 mmHg 81%
11:00 +9°C° 0 mm 7 mps 750 mmHg 73%
12:00 +11°C° 0 mm 7 mps 750 mmHg 65%
13:00 +15°C° 0 mm 8 mps 749 mmHg 58%
14:00 +16°C° 0 mm 7 mps 749 mmHg 59%
15:00 +17°C° 0 mm 6 mps 749 mmHg 61%
16:00 +17°C° 0 mm 6 mps 749 mmHg 62%
17:00 +16°C° 0 mm 5 mps 749 mmHg 68%
18:00 +15°C° 0 mm 5 mps 749 mmHg 74%
19:00 +14°C° 0 mm 4 mps 749 mmHg 80%
20:00 +13°C° 0 mm 4 mps 749 mmHg 84%
21:00 +12°C° 0 mm 4 mps 749 mmHg 87%
22:00 +11°C° 0 mm 4 mps 749 mmHg 91%
23:00 +11°C° 0 mm 4 mps 749 mmHg 91%

Day after tomorrow, 10 May, Monday

Time Temperature Precipitation Wind Pressure Humidity
00:00 +10°C° 0 mm 4 mps 749 mmHg 91%
01:00 +10°C° 0 mm 4 mps 749 mmHg 92%
02:00 +9°C° 0 mm 5 mps 749 mmHg 90%
03:00 +8°C° 0 mm 5 mps 749 mmHg 88%
04:00 +8°C° 0 mm 5 mps 749 mmHg 86%
05:00 +9°C° 0 mm 5 mps 749 mmHg 80%
06:00 +11°C° 0 mm 6 mps 749 mmHg 74%
07:00 +13°C° 0 mm 6 mps 749 mmHg 69%
08:00 +15°C° 0 mm 7 mps 749 mmHg 64%
09:00 +17°C° 0 mm 7 mps 749 mmHg 60%
10:00 +18°C° 0 mm 7 mps 748 mmHg 55%
11:00 +20°C° 0 mm 7 mps 748 mmHg 55%
12:00 +21°C° 0 mm 7 mps 748 mmHg 54%
13:00 +22°C° 0 mm 7 mps 748 mmHg 54%
14:00 +22°C° 0 mm 7 mps 748 mmHg 57%
15:00 +21°C° 0 mm 7 mps 748 mmHg 59%
16:00 +21°C° 0 mm 7 mps 748 mmHg 62%
17:00 +20°C° 0 mm 6 mps 748 mmHg 67%
18:00 +19°C° 0 mm 5 mps 748 mmHg 72%
19:00 +17°C° 0 mm 5 mps 748 mmHg 78%
20:00 +17°C° 0 mm 4 mps 748 mmHg 82%
21:00 +14°C° 0 mm 4 mps 748 mmHg 86%
22:00 +13°C° 0 mm 4 mps 748 mmHg 91%
23:00 +13°C° 0 mm 4 mps 748 mmHg 92%

11 May, Tuesday

Time Temperature Precipitation Wind Pressure Humidity
00:00 +12°C° 0 mm 4 mps 748 mmHg 93%
01:00 +12°C° 0 mm 4 mps 748 mmHg 94%
02:00 +12°C° 0 mm 4 mps 748 mmHg 95%
03:00 +12°C° 0 mm 3 mps 748 mmHg 95%
04:00 +11°C° 0 mm 3 mps 748 mmHg 95%
05:00 +12°C° 0 mm 4 mps 748 mmHg 91%
06:00 +13°C° 0 mm 5 mps 748 mmHg 86%
07:00 +15°C° 0 mm 5 mps 748 mmHg 82%
08:00 +16°C° 0 mm 5 mps 747 mmHg 77%
09:00 +19°C° 0 mm 6 mps 747 mmHg 72%
10:00 +20°C° 0 mm 6 mps 747 mmHg 67%
11:00 +21°C° 0 mm 6 mps 747 mmHg 65%
12:00 +22°C° 0 mm 7 mps 746 mmHg 62%
13:00 +23°C° 0 mm 7 mps 746 mmHg 60%
14:00 +23°C° 0 mm 7 mps 746 mmHg 62%
15:00 +23°C° 0 mm 7 mps 746 mmHg 65%
16:00 +23°C° 0 mm 7 mps 745 mmHg 68%
17:00 +22°C° 0 mm 7 mps 745 mmHg 71%
18:00 +21°C° 0 mm 7 mps 745 mmHg 74%
19:00 +20°C° 0 mm 7 mps 745 mmHg 76%
20:00 +18°C° 0 mm 7 mps 746 mmHg 77%
21:00 +17°C° 0 mm 7 mps 746 mmHg 78%
22:00 +16°C° 0 mm 7 mps 746 mmHg 78%
23:00 +16°C° 0 mm 6 mps 746 mmHg 78%

12 May, Wednesday

Time Temperature Precipitation Wind Pressure Humidity
00:00 +15°C° 0 mm 6 mps 746 mmHg 79%
01:00 +14°C° 0 mm 6 mps 746 mmHg 79%
02:00 +13°C° 0 mm 6 mps 746 mmHg 78%
03:00 +12°C° 0 mm 5 mps 746 mmHg 77%
04:00 +12°C° 0 mm 5 mps 746 mmHg 76%
05:00 +11°C° 0 mm 6 mps 746 mmHg 74%
06:00 +13°C° 0 mm 6 mps 746 mmHg 72%
07:00 +12°C° 0 mm 7 mps 746 mmHg 71%
08:00 +15°C° 0 mm 7 mps 746 mmHg 67%
09:00 +16°C° 0 mm 7 mps 746 mmHg 64%
10:00 +18°C° 0 mm 8 mps 746 mmHg 60%
11:00 +20°C° 0 mm 8 mps 746 mmHg 59%
12:00 +21°C° 0 mm 8 mps 746 mmHg 58%
13:00 +22°C° 0 mm 7 mps 746 mmHg 57%
14:00 +22°C° 0 mm 7 mps 746 mmHg 59%
15:00 +22°C° 0 mm 7 mps 746 mmHg 62%
16:00 +21°C° 0 mm 7 mps 746 mmHg 64%
17:00 +20°C° 0 mm 6 mps 746 mmHg 68%
18:00 +17°C° 0 mm 5 mps 746 mmHg 72%
19:00 +16°C° 0 mm 5 mps 746 mmHg 75%
20:00 +15°C° 0 mm 4 mps 746 mmHg 79%
21:00 +14°C° 0 mm 4 mps 747 mmHg 84%
22:00 +13°C° 0 mm 3 mps 747 mmHg 88%
23:00 +12°C° 0 mm 4 mps 747 mmHg 88%

13 May, Thursday

Time Temperature Precipitation Wind Pressure Humidity
00:00 +12°C° 0 mm 4 mps 747 mmHg 88%
01:00 +11°C° 0 mm 4 mps 747 mmHg 88%
02:00 +10°C° 0 mm 4 mps 747 mmHg 90%
03:00 +8°C° 0 mm 4 mps 747 mmHg 92%
04:00 +8°C° 0 mm 3 mps 747 mmHg 94%
05:00 +8°C° 0 mm 4 mps 747 mmHg 89%
06:00 +10°C° 0 mm 4 mps 747 mmHg 83%
07:00 +11°C° 0 mm 4 mps 747 mmHg 78%
08:00 +12°C° 0 mm 4 mps 747 mmHg 73%
09:00 +14°C° 0 mm 5 mps 747 mmHg 68%
10:00 +15°C° 0 mm 5 mps 747 mmHg 63%
11:00 +15°C° 0 mm 5 mps 746 mmHg 63%
12:00 +15°C° 0 mm 5 mps 746 mmHg 63%
13:00 +14°C° 0 mm 4 mps 746 mmHg 62%
14:00 +15°C° 0 mm 4 mps 746 mmHg 62%
15:00 +16°C° 0 mm 3 mps 745 mmHg 61%
16:00 +16°C° 0 mm 3 mps 745 mmHg 61%
17:00 +14°C° 0 mm 3 mps 745 mmHg 67%
18:00 +12°C° 0 mm 3 mps 745 mmHg 73%
19:00 +11°C° 0 mm 3 mps 745 mmHg 78%
20:00 +11°C° 0 mm 3 mps 744 mmHg 80%
21:00 +10°C° 0 mm 2 mps 744 mmHg 82%
22:00 +10°C° 0 mm 1 mps 744 mmHg 84%
23:00 +10°C° 0.1 mm 1 mps 744 mmHg 85%
Show more

We Need Your Consent

Meteoprog and our Service Providers may store and access personal data such as cookies, device identifiers or other similar technologies on your device and process such data to personalise content and ads, as well as provide social media features and to analyse the traffic.

  • Store and/or access information on your device

    Cookies, device identifiers or other information can be stored or accessed on your device for the purposes indicated above.

  • Personalised ads and content, ad and content measurement, audience insights, and products development

    Ads and content can be personalised based on a profile. More data can be added to better personalise ads and content. Ad and content performance can be measured. Insights about the audience who saw the ads and content can be derived. Such data can be used to develop or improve user’s experience, systems and software.

By clicking ‘I Agree’ you will allow the use of indicated cookies, device identifiers, web beacons or other similar technologies. Your settings can be changed in the browser on your device.

For certain purposes, legitimate interests may be relied on, rather than consent. You can read more about this in our Privacy and Cookie Policy.